Liberty Grace — WADN — position and weather

sailwx.info

Track history (hours):
 
Tides and Currents Weather Stations Pressure Air Temp Water Temp Dewpoint Dewpoint Depression Visibility Wind Speed Wind Dir Waves Ship Positions

Liberty Grace

Owner: Liberty Shipping Group, LLC, LAKE SUCCESS, NY. More information available from US FCC via Universal Licensing System and Coast Guard Vessel Documentation Center.

Last reported at 2014-Nov-21 23:33 UTC. Time now 2014-Nov-22 00:08 UTC.
Position N 36°03' W 008°10'.

Type: Cargo ship. MMSI: 338219000.

Date/timePositionNaut miles runAvg speedWind from/ knotsBaromVisibWave heightAir tempDewpointWater temp
2014-Nov-21 23:33N 36°03' W 008°10'1513.7
2014-Nov-21 22:30N 36°02' W 007°52'1313.5
2014-Nov-21 21:33N 36°01' W 007°37'1413.5
2014-Nov-21 20:33N 35°60' W 007°20'9012.8
2014-Nov-21 13:29N 35°60' W 005°28'1010.7
2014-Nov-21 12:33N 36°06' W 005°19'6 5.4
2014-Nov-21 11:32N 36°07' W 005°12'21113.2
2014-Nov-20 19:33N 36°35' W 000°53'1312.8
2014-Nov-20 18:33N 36°37' W 000°37'1313.4
2014-Nov-20 17:33N 36°40' W 000°21'1313.4
2014-Nov-20 16:33N 36°41' W 000°04'1413.6
2014-Nov-20 15:33N 36°43' E 000°13'1413.3
2014-Nov-20 14:32N 36°46' E 000°29'9212.4
2014-Nov-20 07:08N 36°59' E 002°23'2612.5
2014-Nov-20 05:03N 37°03' E 002°55'1313.1
2014-Nov-20 04:04N 37°06' E 003°12'812.7
2014-Nov-20 03:26N 37°06' E 003°21'1412.8
2014-Nov-20 02:20N 37°07' E 003°39'1012.8
2014-Nov-20 01:33N 37°09' E 003°52'1313.2
2014-Nov-20 00:33N 37°11' E 004°08'1913.4
2014-Nov-19 23:08N 37°14' E 004°31'813.4
2014-Nov-19 22:33N 37°15' E 004°41'1313.4
2014-Nov-19 21:33N 37°16' E 004°58'1513.5
2014-Nov-19 20:28N 37°18' E 005°16'1213.6
2014-Nov-19 19:33N 37°20' E 005°31'1414.0
2014-Nov-19 18:33N 37°22' E 005°49'1414.0
2014-Nov-19 17:33N 37°24' E 006°06'1313.6
2014-Nov-19 16:33N 37°26' E 006°23'1313.4
2014-Nov-19 15:33N 37°28' E 006°40'4313.7
2014-Nov-19 12:23N 37°33' E 007°34'7113.6
2014-Nov-19 07:11N 37°43' E 009°02'14612.3
2014-Nov-18 19:22N 37°07' E 012°00'77 4.3
2014-Nov-18 01:13N 37°06' E 013°37'913.2
2014-Nov-18 00:33N 37°01' E 013°46'1313.3
2014-Nov-17 23:33N 36°52' E 013°59'1413.6
2014-Nov-17 22:33N 36°45' E 014°13'1413.6
2014-Nov-17 21:33N 36°36' E 014°25'1413.2
2014-Nov-17 20:28N 36°27' E 014°40'1213.3
2014-Nov-17 19:33N 36°25' E 014°55'42416.6
2014-Nov-16 18:00N 34°54' E 023°24'181 7.6 120 / 91016.2 20.014.9
2014-Nov-15 18:00N 33°18' E 026°30'32312.2 170 / 181013.110.8 20.014.9
2014-Nov-14 15:32N 31°07' E 032°19'77 4.7
2014-Nov-13 23:07N 29°51' E 032°35'  
Track history (hours):
 
Tides and Currents Weather Stations Pressure Air Temp Water Temp Dewpoint Dewpoint Depression Visibility Wind Speed Wind Dir Waves Ship Positions

Liberty Grace

Owner: Liberty Shipping Group, LLC, LAKE SUCCESS, NY. More information available from US FCC via Universal Licensing System and Coast Guard Vessel Documentation Center.

Last reported at 2014-Nov-21 23:33 UTC. Time now 2014-Nov-22 00:08 UTC.
Position N 36°03' W 008°10'.

Type: Cargo ship. MMSI: 338219000.

Date/timePositionNaut miles runAvg speedWind from/ knotsBaromVisibWave heightAir tempDewpointWater temp
2014-Nov-21 23:33N 36°03' W 008°10'1513.7
2014-Nov-21 22:30N 36°02' W 007°52'1313.5
2014-Nov-21 21:33N 36°01' W 007°37'1413.5
2014-Nov-21 20:33N 35°60' W 007°20'9012.8
2014-Nov-21 13:29N 35°60' W 005°28'1010.7
2014-Nov-21 12:33N 36°06' W 005°19'6 5.4
2014-Nov-21 11:32N 36°07' W 005°12'21113.2
2014-Nov-20 19:33N 36°35' W 000°53'1312.8
2014-Nov-20 18:33N 36°37' W 000°37'1313.4
2014-Nov-20 17:33N 36°40' W 000°21'1313.4
2014-Nov-20 16:33N 36°41' W 000°04'1413.6
2014-Nov-20 15:33N 36°43' E 000°13'1413.3
2014-Nov-20 14:32N 36°46' E 000°29'9212.4
2014-Nov-20 07:08N 36°59' E 002°23'2612.5
2014-Nov-20 05:03N 37°03' E 002°55'1313.1
2014-Nov-20 04:04N 37°06' E 003°12'812.7
2014-Nov-20 03:26N 37°06' E 003°21'1412.8
2014-Nov-20 02:20N 37°07' E 003°39'1012.8
2014-Nov-20 01:33N 37°09' E 003°52'1313.2
2014-Nov-20 00:33N 37°11' E 004°08'1913.4
2014-Nov-19 23:08N 37°14' E 004°31'813.4
2014-Nov-19 22:33N 37°15' E 004°41'1313.4
2014-Nov-19 21:33N 37°16' E 004°58'1513.5
2014-Nov-19 20:28N 37°18' E 005°16'1213.6
2014-Nov-19 19:33N 37°20' E 005°31'1414.0
2014-Nov-19 18:33N 37°22' E 005°49'1414.0
2014-Nov-19 17:33N 37°24' E 006°06'1313.6
2014-Nov-19 16:33N 37°26' E 006°23'1313.4
2014-Nov-19 15:33N 37°28' E 006°40'4313.7
2014-Nov-19 12:23N 37°33' E 007°34'7113.6
2014-Nov-19 07:11N 37°43' E 009°02'14612.3
2014-Nov-18 19:22N 37°07' E 012°00'77 4.3
2014-Nov-18 01:13N 37°06' E 013°37'913.2
2014-Nov-18 00:33N 37°01' E 013°46'1313.3
2014-Nov-17 23:33N 36°52' E 013°59'1413.6
2014-Nov-17 22:33N 36°45' E 014°13'1413.6
2014-Nov-17 21:33N 36°36' E 014°25'1413.2
2014-Nov-17 20:28N 36°27' E 014°40'1213.3
2014-Nov-17 19:33N 36°25' E 014°55'42416.6
2014-Nov-16 18:00N 34°54' E 023°24'181 7.6 120 / 91016.2 20.014.9
2014-Nov-15 18:00N 33°18' E 026°30'32312.2 170 / 181013.110.8 20.014.9
2014-Nov-14 15:32N 31°07' E 032°19'77 4.7
2014-Nov-13 23:07N 29°51' E 032°35'  

Dump ship's entire track history